GLOBALSTAR M068 [P]

Last updated on May 4, 2016, 11:40 p.m. UTC

1 32266U 07048D   16125.79509039 -.00000091  00000-0  73974-4 0  9990
2 32266  51.9903  12.6769 0000763  21.1198  91.1964 12.62676040397101
UTC
Height (km)
Latitude
Longitude
Inclination
Orbital Period
UTC large
Height (km)
Speed (km/s)
/
Latitude / Longitude
Inclination (degrees)
Orbital Period (minutes)
Azimuth
Elevation
Range (km)
Doppler Factor
iOS Compass Heading
iOS Angle